DW8214 Weather Reports


time (UTC)temp
C
wind
direction
speed
KPH
gust
KPH
rain 1hr
cm
rain 24hr
cm
rain mn
cm
humidity
%
barometer
mb
20181023103155 22 66 0.0 0.0 0.00 0.00 0.00 83 1017.2
20181023101639 22 64 0.0 0.0 0.00 0.00 0.00 84 1017.3
20181023100150 21 64 0.0 0.0 0.00 0.00 0.00 84 1017.3
20181023094618 21 65 0.0 0.0 0.00 0.00 0.00 85 1017.4
20181023093116 21 65 0.0 3.2 0.00 0.00 0.00 86 1017.3
20181023091655 21 63 0.0 1.6 0.00 0.00 0.00 87 1017.3
20181023090217 21 88 0.0 1.6 0.00 0.00 0.00 88 1017.2
20181023084607 21 68 0.0 4.8 0.00 0.00 0.00 90 1017.1
20181023083105 21 61 0.0 0.0 0.00 0.00 0.00 91 1017.0
20181023081617 20 27 0.0 0.0 0.00 0.00 0.00 92 1016.7
20181023080127 19 27 0.0 0.0 0.00 0.00 0.00 91 1016.6
20181023074630 19 27 0.0 0.0 0.00 0.00 0.00 91 1016.4
20181023073054 18 27 0.0 1.6 0.00 0.00 0.00 90 1016.3
20181023071704 18 27 0.0 0.0 0.00 0.00 0.00 89 1016.1
20181023070030 18 27 0.0 0.0 0.00 0.00 0.00 88 1015.9
20181023064604 18 27 0.0 0.0 0.00 0.00 0.00 87 1015.8
20181023063021 18 27 0.0 0.0 0.00 0.00 0.00 87 1015.6
20181023061543 17 27 0.0 0.0 0.00 0.00 0.00 85 1015.4
20181023060019 17 27 0.0 0.0 0.00 0.00 0.00 85 1015.3
20181023054516 17 27 0.0 0.0 0.00 0.00 0.00 85 1015.3
20181023053043 17 27 0.0 0.0 0.00 0.00 0.00 84 1015.1
20181023051512 16 27 0.0 0.0 0.00 0.00 0.00 83 1015.0
20181023050019 17 27 0.0 0.0 0.00 0.00 0.00 82 1014.9
20181023044517 17 27 0.0 0.0 0.00 0.00 0.00 82 1014.9
20181023043007 17 27 0.0 0.0 0.00 0.00 0.00 82 1014.6
20181023041508 17 27 0.0 0.0 0.00 0.00 0.00 82 1014.5
20181023040010 17 27 0.0 0.0 0.00 0.00 0.00 82 1014.4
20181023034505 17 27 0.0 0.0 0.00 0.00 0.00 81 1014.4
20181023033004 17 27 0.0 0.0 0.00 0.00 0.00 81 1014.3
20181023031504 17 27 0.0 0.0 0.00 0.00 0.00 81 1014.0
20181023030005 17 27 0.0 0.0 0.00 0.00 0.00 82 1014.0
20181023024501 18 27 0.0 0.0 0.00 0.00 0.00 82 1014.0
20181023023002 18 27 0.0 0.0 0.00 0.00 0.00 81 1014.0
20181023021637 18 27 0.0 0.0 0.00 0.00 0.00 82 1013.9
20181023020223 18 27 0.0 0.0 0.00 0.00 0.00 82 1013.8
20181023014621 18 27 0.0 0.0 0.00 0.00 0.00 82 1013.8
20181023013124 18 27 0.0 0.0 0.00 0.00 0.00 82 1013.9
20181023011709 18 27 0.0 0.0 0.00 0.00 0.00 83 1014.0
20181023010201 18 27 0.0 0.0 0.00 0.00 0.00 85 1014.2
20181023004711 17 27 0.0 0.0 0.00 0.00 0.00 87 1014.2
20181023003242 17 27 0.0 0.0 0.00 0.00 0.00 88 1014.1
20181023001646 17 27 0.0 0.0 0.00 0.00 0.00 88 1014.1
20181023000101 17 19 0.0 0.0 0.00 0.00 0.00 89 1014.0
20181022234753 17 169 0.0 0.0 0.00 0.00 0.00 88 1014.2
20181022233110 17 169 0.0 0.0 0.00 0.00 0.00 88 1014.4
20181022231736 17 169 0.0 0.0 0.00 0.00 0.00 88 1014.4
20181022230111 17 169 0.0 0.0 0.00 0.00 0.00 87 1014.6
20181022224652 17 169 0.0 0.0 0.00 0.00 0.00 87 1014.7
20181022223237 18 169 0.0 0.0 0.00 0.00 0.00 87 1014.8
20181022221639 18 169 0.0 0.0 0.00 0.00 0.00 87 1015.0
20181022220130 18 169 0.0 0.0 0.00 0.00 0.00 87 1015.0
20181022214552 18 169 0.0 0.0 0.00 0.00 0.00 87 1014.9
20181022213138 18 169 0.0 0.0 0.00 0.00 0.00 87 1014.9
20181022211605 18 169 0.0 0.0 0.00 0.00 0.00 87 1014.7
20181022210056 18 169 0.0 0.0 0.00 0.00 0.00 86 1014.5
20181022204542 18 169 0.0 0.0 0.00 0.00 0.00 86 1014.5
20181022203051 18 169 0.0 0.0 0.00 0.00 0.00 86 1014.5
20181022201537 18 169 0.0 0.0 0.00 0.00 0.00 85 1014.3
20181022200053 19 169 0.0 0.0 0.00 0.00 0.00 85 1014.2
20181022194601 19 169 0.0 0.0 0.00 0.00 0.00 84 1014.2
20181022193055 20 169 0.0 0.0 0.00 0.00 0.00 84 1014.2
20181022191545 20 169 0.0 0.0 0.00 0.00 0.00 83 1014.0
20181022190110 20 169 0.0 0.0 0.00 0.00 0.00 83 1014.1
20181022184656 20 169 0.0 0.0 0.00 0.00 0.00 83 1014.1
20181022183108 21 169 0.0 0.0 0.00 0.00 0.00 82 1014.2
20181022181628 21 169 0.0 0.0 0.00 0.00 0.00 82 1014.1
20181022180046 21 169 0.0 0.0 0.00 0.00 0.00 81 1013.6
20181022174614 21 169 0.0 0.0 0.00 0.00 0.00 80 1013.4
20181022173042 22 169 0.0 0.0 0.00 0.00 0.00 78 1013.2
20181022171612 22 169 0.0 3.2 0.00 0.00 0.00 77 1013.1
20181022170031 22 153 0.0 0.0 0.00 0.00 0.00 77 1012.9
20181022164536 23 153 0.0 1.6 0.00 0.00 0.00 75 1012.9
20181022163040 23 157 0.0 3.2 0.00 0.00 0.00 73 1013.0
20181022161609 23 201 0.0 1.6 0.00 0.00 0.00 72 1013.1
20181022160056 23 147 0.0 6.4 0.00 0.00 0.00 72 1012.9
20181022154536 24 147 0.0 8.0 0.00 0.00 0.00 71 1012.8
20181022153054 24 159 0.0 4.8 0.00 0.00 0.00 71 1012.9
20181022151554 24 161 1.6 11.3 0.00 0.00 0.00 70 1012.9
20181022150035 24 178 0.0 12.9 0.00 0.00 0.00 69 1012.8
20181022144523 25 151 1.6 11.3 0.00 0.00 0.00 68 1012.9
20181022143035 25 159 0.0 12.9 0.00 0.00 0.00 67 1013.1
20181022141551 25 146 1.6 14.5 0.00 0.00 0.00 66 1013.1
20181022140058 25 174 0.0 9.7 0.00 0.00 0.00 65 1013.1
20181022134527 26 180 0.0 6.4 0.00 0.00 0.00 63 1013.1
20181022133033 26 124 0.0 11.3 0.00 0.00 0.00 60 1013.1
20181022131544 26 134 0.0 9.7 0.00 0.00 0.00 60 1013.1
20181022130306 26 126 0.0 8.0 0.00 0.00 0.00 60 1013.2
20181022124826 25 123 0.0 11.3 0.00 0.00 0.00 60 1013.6
20181022121554 26 92 0.0 14.5 0.00 0.00 0.00 59 1014.0
20181022120046 26 10 0.0 6.4 0.00 0.00 0.00 59 1014.2
20181022114520 26 113 0.0 4.8 0.00 0.00 0.00 59 1014.3
20181022113014 25 72 1.6 12.9 0.00 0.00 0.00 58 1014.4
20181022111515 25 119 1.6 11.3 0.00 0.00 0.00 60 1014.3
20181022110003 25 42 0.0 12.9 0.00 0.00 0.00 61 1014.2
20181022104641 25 149 0.0 12.9 0.00 0.00 0.00 62 1014.3